Theta_e
329 330 330 330 330 330 330 332 338 338 335 339 339 338 340 341 340 340 342 346 346 345 344 344 340 336 337 337 337 338 338 339 338 336 335 336 336 338 335 332 332 330 329 328
329 330 330 330 330 329 330 333 337 336 335 337 336 337 339 342 343 343 344 345 344 347 344 340 340 338 335 336 336 335 334 334 333 334 334 336 336 333 332 330 329 327 326 325
329 329 327 330 331 331 331 331 336 336 335 335 335 336 337 340 342 344 344 344 345 346 345 342 337 335 334 332 330 329 329 328 328 327 326 326 326 326 325 324 324 324 323 322
331 328 329 331 330 331 331 332 334 334 336 337 334 339 337 338 342 341 342 343 344 344 340 335 334 332 330 328 328 327 327 326 325 325 322 322 321 321 321 320 320 319 318 317
331 330 330 331 332 332 335 332 333 334 336 337 336 337 337 337 340 340 340 340 339 336 334 333 331 329 328 325 325 323 324 324 323 322 321 320 320 318 317 316 315 314 314 314
331 332 334 333 332 332 333 335 335 335 336 338 338 336 337 337 339 339 338 337 336 334 332 330 328 326 324 323 322 321 323 323 322 321 319 318 317 316 314 314 313 313 313 313
333 333 334 333 332 332 333 336 337 337 337 335 336 335 341 338 337 339 337 336 335 332 331 329 326 324 323 324 323 321 322 322 320 319 318 316 315 314 313 313 313 314 313 314
331 334 334 334 336 334 334 334 335 335 334 335 335 336 341 337 337 336 335 335 334 332 329 327 325 323 323 324 324 323 322 321 319 318 316 315 314 313 313 313 314 314 314 314
331 334 334 334 335 335 336 336 336 335 335 335 334 338 336 336 337 335 334 334 333 331 329 326 324 324 324 324 325 323 322 320 319 317 314 313 313 314 314 314 314 314 314 313
338 334 334 335 334 335 336 334 335 336 335 333 334 334 338 339 338 336 335 334 333 330 328 325 324 325 324 324 323 323 321 319 317 315 313 313 313 313 313 313 313 313 313 314
336 336 337 335 336 336 335 335 335 336 335 332 333 337 336 337 337 336 335 333 333 330 327 325 323 323 324 323 322 323 320 318 316 313 313 313 313 313 313 313 313 313 313 313
340 336 334 337 336 335 335 335 335 335 337 335 334 337 335 337 337 335 334 333 331 329 326 324 323 323 324 323 322 320 319 317 314 313 313 313 313 313 314 314 314 314 313 313
341 341 336 339 338 337 336 336 336 337 338 336 331 339 336 336 336 335 334 331 330 328 326 325 323 323 323 322 320 319 318 315 313 312 313 313 313 314 314 314 314 314 314 314
340 342 334 332 331 330 334 336 335 337 337 334 334 334 339 338 337 335 334 331 329 328 326 326 324 323 322 320 320 319 317 314 313 312 313 313 313 314 314 314 314 314 314 314
342 338 335 333 333 333 333 334 334 334 334 336 336 335 337 338 337 335 334 331 329 328 325 326 325 323 321 320 319 318 316 314 313 313 313 313 314 314 314 314 314 314 313 314
343 341 337 336 336 334 334 335 333 335 335 336 335 337 336 336 335 334 333 331 329 327 325 325 324 322 321 319 319 318 316 314 313 312 312 312 313 314 314 314 314 314 314 314
342 343 341 335 336 334 333 333 334 335 335 337 337 337 336 336 335 334 332 330 328 326 326 324 324 322 321 320 319 319 316 314 313 312 312 312 312 312 314 314 314 314 314 312
344 341 336 335 335 334 338 337 336 337 336 336 336 336 336 336 334 332 330 330 327 326 325 323 324 322 321 320 319 318 315 314 314 313 312 312 312 312 313 315 314 314 314 313
338 336 339 335 334 334 334 338 337 337 338 336 336 336 335 334 334 333 331 329 327 326 324 323 323 322 321 320 319 318 315 315 314 313 313 312 311 312 312 314 314 314 315 314
340 341 335 335 333 333 339 337 336 336 339 334 335 336 336 334 333 336 330 328 326 325 323 324 323 322 321 320 319 318 315 315 313 312 312 312 311 311 311 312 313 313 314 315
338 337 334 334 333 332 337 336 335 339 334 331 329 332 335 333 335 331 328 327 326 324 324 324 323 322 321 320 319 318 316 315 313 312 313 313 311 312 313 313 312 313 314 315
334 334 334 337 335 334 336 336 338 335 331 330 329 329 332 334 333 330 326 327 325 324 324 323 323 323 322 319 319 318 316 315 312 313 313 313 312 313 314 315 314 312 314 315
337 335 337 335 337 340 337 340 338 333 334 333 331 331 328 333 333 329 326 327 324 322 323 322 322 323 322 320 319 318 316 315 313 313 313 314 314 314 315 315 315 313 313 314
339 337 337 341 337 336 338 336 336 333 332 333 332 333 330 332 331 328 328 326 323 322 322 322 322 322 322 321 319 318 316 314 313 313 313 314 315 314 315 315 314 314 313 314
335 338 338 339 337 334 334 336 334 334 333 333 333 331 328 327 329 326 328 326 321 322 321 321 321 322 322 321 320 319 317 315 315 314 313 313 314 315 315 315 315 314 316 312
333 336 336 334 335 335 335 335 335 335 334 333 334 331 327 325 326 327 327 325 321 321 321 322 322 322 322 321 320 319 318 316 316 315 314 313 313 314 314 315 315 315 314 312
Wind_Speed
5 8 8 7 7 6 3 4 11 10 4 13 14 16 12 11 12 12 12 12 11 12 13 13 11 9 10 14 13 14 14 15 15 14 15 14 15 11 9 9 11 11 11 10
8 8 5 7 7 6 5 7 9 7 10 12 14 17 14 14 14 12 13 13 12 13 12 13 13 14 16 17 17 19 20 19 18 16 15 13 9 9 11 11 11 12 12 12
5 8 5 9 8 7 4 7 9 11 8 12 15 14 12 14 14 14 13 12 12 12 11 12 16 17 17 19 21 22 21 21 21 19 18 17 15 12 14 14 14 14 13 12
6 3 10 10 7 9 6 3 5 14 16 9 6 6 9 11 13 12 11 12 11 11 12 13 16 16 18 19 19 20 20 20 20 22 20 19 19 17 16 17 16 15 14 14
4 12 7 7 6 6 7 2 10 14 7 8 6 3 9 7 9 10 10 12 11 12 13 13 16 15 16 17 17 18 17 18 19 20 21 21 20 19 18 19 17 15 14 14
10 5 6 6 5 4 4 7 8 8 7 9 4 6 7 6 5 8 9 10 9 11 11 12 12 13 16 16 16 16 17 18 19 20 21 22 22 21 20 20 18 18 16 15
12 8 6 3 5 7 5 6 6 5 6 5 4 6 9 8 6 5 6 8 8 7 7 10 13 14 15 15 15 16 17 17 19 21 21 22 21 18 17 18 18 18 18 18
9 11 2 3 5 6 3 5 6 9 6 5 4 0 8 7 6 6 7 6 6 6 9 10 13 14 14 13 13 14 14 16 17 19 20 20 18 16 15 15 16 16 16 17
5 6 6 7 7 3 3 3 4 6 4 7 5 6 7 9 8 6 6 5 6 6 6 9 12 12 12 12 11 12 13 15 16 18 19 16 15 15 15 14 14 15 15 16
3 5 2 4 3 7 5 3 5 4 4 5 5 5 7 12 12 8 6 5 5 3 5 9 11 10 11 11 9 11 13 14 16 18 17 15 14 14 15 13 14 14 15 15
7 3 7 5 2 6 2 3 1 4 4 6 4 7 6 7 10 8 5 4 5 1 7 9 11 11 11 11 11 11 14 16 16 17 15 14 14 14 14 14 15 14 15 15
2 1 2 6 4 3 3 4 3 6 3 2 5 4 5 7 10 6 5 5 5 3 6 10 11 12 12 12 11 11 13 15 16 15 13 14 13 14 15 15 15 16 15 14
7 2 4 8 7 4 3 2 1 1 3 2 8 6 6 9 9 7 6 7 5 1 7 9 11 11 12 12 11 11 13 14 15 14 14 14 13 14 14 14 16 17 16 15
2 2 3 6 5 3 3 4 2 4 7 7 2 3 11 10 9 8 7 7 3 3 5 8 9 10 11 10 10 11 12 13 14 13 13 14 14 14 14 14 15 15 16 16
1 3 2 3 3 2 1 2 3 7 6 6 8 4 7 9 9 9 8 6 3 4 6 7 7 9 11 10 10 10 11 11 14 12 13 14 14 14 14 14 14 14 15 16
1 4 6 4 3 4 4 1 1 1 1 2 4 3 3 7 10 9 8 6 2 5 6 6 6 8 10 10 11 9 10 10 13 12 12 13 14 13 14 15 15 15 15 15
4 6 5 3 3 5 8 2 0 2 0 4 6 7 5 9 9 9 7 4 3 4 5 6 6 7 8 9 10 9 9 9 11 12 11 12 13 12 13 14 16 16 14 14
9 6 3 2 4 8 7 3 2 3 0 1 2 2 3 8 8 7 4 6 4 4 4 4 5 5 6 8 10 9 8 8 10 11 11 12 13 12 12 13 15 15 13 14
6 4 3 4 6 3 6 3 4 4 3 1 1 4 6 9 8 7 5 4 5 5 4 4 5 5 4 7 9 9 8 9 11 12 11 12 12 12 12 12 13 14 13 13
5 2 5 3 5 3 8 5 2 2 4 4 1 4 8 9 9 10 7 6 6 5 4 4 4 4 3 6 7 9 8 10 11 10 10 10 11 11 12 12 11 12 11 10
5 3 6 5 5 2 6 8 4 6 4 6 2 4 6 5 9 11 9 7 6 4 4 4 3 3 3 4 6 8 7 9 9 8 8 9 8 9 10 11 11 10 10 8
6 5 4 2 5 7 12 9 4 8 8 8 5 4 5 8 9 9 8 8 6 5 5 3 3 3 2 2 5 7 7 6 7 6 7 7 7 8 9 9 10 9 8 6
5 3 3 4 4 3 14 3 5 9 9 8 7 7 5 9 9 8 7 7 5 4 4 3 2 3 2 1 3 5 4 5 6 5 6 6 6 8 8 8 8 7 5 5
4 3 4 3 6 6 11 6 5 8 8 8 8 10 7 9 9 7 7 7 5 5 4 4 3 3 3 3 2 2 2 2 4 4 4 5 6 7 7 7 7 7 7 6
4 5 4 6 4 3 8 13 8 10 9 10 11 11 8 8 9 8 7 7 5 6 5 4 3 3 4 4 4 2 2 2 3 3 4 5 4 5 7 6 6 7 5 5
5 2 5 4 5 5 4 8 13 13 13 13 14 12 11 10 9 8 9 7 6 7 6 5 4 4 5 6 5 4 3 3 4 5 4 4 7 7 7 8 7 4 5 6
Wind_Direction
185 249 44 62 50 78 76 89 102 113 99 87 93 85 75 59 50 60 73 84 81 82 78 76 75 62 36 32 31 24 18 11 7 1 352 346 346 352 1 11 14 9 2 359
197 91 81 122 132 121 98 115 109 100 109 115 102 84 73 60 59 55 70 72 74 80 76 64 54 48 40 39 40 39 35 31 23 15 9 360 7 4 355 360 6 12 11 10
355 68 137 158 167 143 60 351 173 137 149 123 125 98 87 84 79 75 70 77 74 59 53 50 48 40 45 47 40 38 35 33 31 22 15 11 5 358 358 355 356 354 358 358
57 123 160 186 91 332 79 10 178 153 179 168 238 131 93 101 90 70 68 60 57 55 56 55 55 52 46 40 35 33 31 30 27 24 20 16 6 0 353 349 351 346 351 355
89 141 169 93 43 356 36 202 180 186 233 213 171 267 121 136 99 74 65 63 61 61 54 59 54 44 41 34 31 26 30 33 29 23 19 12 5 357 351 351 350 356 2 3
110 109 37 63 72 60 128 122 153 206 214 234 106 283 159 131 104 100 77 69 60 65 67 56 48 36 27 25 24 28 28 28 21 16 12 9 4 360 359 360 1 1 4 4
137 102 101 28 147 147 232 223 215 199 228 35 113 253 68 121 126 89 72 72 69 66 57 37 28 25 26 22 21 18 20 19 12 9 7 4 2 2 5 4 4 360 359 359
166 157 15 16 9 353 25 324 337 317 335 79 150 190 117 122 131 120 87 83 83 59 40 27 27 21 20 20 18 14 13 11 7 6 3 3 5 5 7 6 0 0 354 352
180 105 113 57 42 309 75 313 15 292 182 263 82 117 147 156 154 149 105 102 93 61 32 22 25 22 13 17 16 9 8 6 5 3 2 7 10 9 4 359 356 357 352 348
106 131 176 113 235 76 353 73 267 211 296 309 124 258 82 178 177 157 148 127 106 61 25 25 23 22 13 11 11 6 2 5 5 2 6 8 5 5 2 360 360 355 351 350
155 272 139 199 7 350 178 185 355 301 322 323 301 86 68 166 166 165 142 122 134 95 21 27 24 20 13 6 9 9 0 3 6 5 7 11 11 9 6 7 3 358 355 351
92 30 156 61 78 9 8 24 334 323 87 68 286 78 109 127 126 138 132 139 124 41 25 26 25 20 16 12 8 16 2 6 7 2 9 13 8 10 12 10 7 2 0 359
175 137 185 174 163 164 260 92 61 64 272 137 311 88 140 140 143 148 145 136 161 29 33 30 21 23 23 14 17 11 11 9 5 6 13 17 15 15 12 10 10 13 7 8
98 118 308 352 37 49 174 197 228 300 291 348 351 11 157 171 173 154 151 171 139 47 38 36 21 26 31 24 20 16 14 10 10 14 20 15 14 13 12 12 9 11 12 8
219 143 168 105 127 195 216 278 265 290 343 294 15 328 31 165 169 153 158 172 156 48 32 36 32 26 27 25 22 21 16 15 13 17 20 14 14 13 9 9 10 13 16 15
37 139 168 153 164 221 228 183 342 15 18 268 324 114 31 116 134 144 168 173 119 51 40 37 41 36 31 24 15 19 15 16 13 16 16 14 11 14 9 9 10 15 19 17
148 147 204 158 197 224 239 107 270 137 241 333 325 45 135 150 155 160 150 149 75 59 40 38 46 48 34 25 13 13 14 13 10 11 13 10 10 7 12 14 14 19 25 20
142 146 198 104 208 250 77 80 235 280 311 193 232 42 157 155 147 151 135 111 86 70 45 56 60 62 39 21 17 10 14 13 7 11 11 9 8 9 10 13 12 13 20 26
143 164 131 241 231 353 177 179 206 245 116 17 356 145 140 140 150 145 110 97 87 89 66 68 75 76 50 22 14 13 20 12 11 13 10 8 11 13 15 9 10 5 13 26
102 113 255 183 275 265 73 131 163 268 215 119 253 166 153 167 223 114 133 135 118 102 90 107 107 102 50 26 16 17 18 17 14 16 12 11 15 19 20 10 10 7 1 23
167 207 240 219 267 281 117 136 153 239 76 128 160 189 174 220 65 113 123 122 127 112 124 123 135 106 66 32 19 23 16 21 11 10 7 10 12 11 12 12 5 9 0 23
207 212 206 237 258 250 143 140 229 108 131 153 151 149 177 127 132 137 129 139 142 141 139 159 154 144 127 42 15 20 25 14 10 7 1 3 0 359 1 1 2 359 6 16
221 283 313 251 11 107 170 42 142 159 155 165 159 145 150 171 163 153 143 149 150 154 149 161 172 172 181 196 2 7 20 14 9 1 3 4 359 359 358 353 360 348 355 15
193 185 240 263 179 180 195 170 171 179 160 158 157 160 159 183 172 163 157 157 162 161 168 164 176 206 209 220 267 343 359 1 2 3 355 353 350 353 0 345 351 346 356 337
26 169 203 247 229 202 206 209 185 177 161 161 164 162 157 174 185 176 173 174 174 172 173 177 185 216 233 221 247 279 302 286 303 329 343 329 336 357 345 352 342 339 344 329
185 178 232 278 66 267 53 195 194 184 178 173 169 168 161 166 179 182 182 179 187 186 186 186 199 223 239 231 241 254 261 264 282 285 296 347 318 330 338 333 332 291 331 307